Location: Bonn
(50.7330°N, 7.1000°E)
Time: 16:10:03
(UTC+02:00)

Iridium 67 - Visible Passes

Search period start: 26 July 2016 00:00
Search period end: 05 August 2016 00:00
Orbit: 776 x 779 km, 86.4° (Epoch: 25 July)

Date Brightness Start Highest point End Pass type
(mag) Time Alt. Az. Time Alt. Az. Time Alt. Az.
26 Jul 8.1 04:02:47 10° ESE 04:06:20 19° ENE 04:09:54 10° NNE visible
27 Jul 8.4 03:31:45 10° E 03:33:14 11° ENE 03:34:43 10° NE visible
27 Jul 5.9 05:07:47 10° S 05:12:58 70° E 05:18:10 10° N visible
28 Jul 6.8 04:34:41 10° SSE 04:39:33 41° E 04:44:26 10° NNE visible
29 Jul 7.6 04:02:03 10° SE 04:06:15 25° E 04:10:28 10° NNE visible
30 Jul 8.1 03:30:07 10° ESE 03:33:05 15° ENE 03:36:03 10° NE visible
30 Jul 5.6 05:07:50 10° S 05:13:03 86° W 05:18:19 10° N visible
31 Jul 6.2 04:34:29 10° SSE 04:39:34 57° E 04:44:42 10° N visible
01 Aug 7.1 04:01:34 10° SE 04:06:13 34° E 04:10:53 10° NNE visible
02 Aug 7.8 03:29:10 10° SE 03:32:58 21° ENE 03:36:47 10° NNE visible
02 Aug 5.6 05:08:02 10° SSW 05:13:12 64° W 05:18:25 10° N visible
03 Aug 8.2 02:57:42 10° E 02:59:51 13° ENE 03:01:59 10° NE visible
03 Aug 5.7 04:34:27 10° S 04:39:40 78° E 04:44:54 10° N visible
04 Aug 6.5 04:01:16 10° SSE 04:06:13 46° E 04:11:12 10° NNE visible
